Theta_e
343 341 340 342 341 339 335 334 330 322 324 329 327 332 331 333 338 340 340 337 331 327 325 324 325 326 328 329 331 334 335 337 338 338 339 340 341 342
338 340 341 341 341 341 339 338 336 329 324 329 330 332 338 338 339 340 338 333 331 327 326 325 324 323 324 325 326 328 331 332 332 332 333 334 335 336
335 338 341 342 340 339 340 337 334 332 326 329 332 333 334 334 336 340 339 339 338 329 327 325 322 321 321 322 322 324 328 329 328 328 328 329 330 332
334 336 338 340 340 340 339 335 334 333 329 325 329 331 333 334 336 337 339 340 340 334 326 324 322 319 319 320 319 320 322 324 325 324 324 325 326 329
336 338 337 337 334 335 336 334 332 333 330 327 327 331 332 333 332 334 335 335 338 334 326 324 322 320 318 317 318 319 319 317 315 315 316 318 321 324
336 335 335 335 334 335 336 331 332 329 328 326 326 327 328 330 331 328 327 333 332 336 332 331 325 323 321 318 318 319 315 314 313 309 309 309 310 312
335 334 334 328 326 329 330 326 323 321 320 318 316 317 318 323 324 326 326 328 328 332 331 332 331 329 326 318 322 321 316 313 310 308 307 306 305 306
329 328 318 314 312 310 310 309 315 315 314 314 312 311 314 316 320 325 325 323 321 330 329 327 331 332 332 326 319 317 314 313 311 308 307 307 305 304
326 325 319 319 318 315 310 309 308 308 311 318 317 317 317 319 320 319 320 324 324 329 327 326 329 325 333 335 318 317 312 313 309 307 307 307 305 303
326 326 324 322 321 321 319 317 318 320 314 313 315 317 321 324 326 325 323 323 327 329 329 322 328 325 330 326 316 314 313 313 307 307 307 306 304 303
326 327 326 323 311 310 321 319 318 319 316 309 308 306 301 301 304 311 314 316 316 320 328 325 325 327 330 324 321 314 311 310 305 305 305 305 304 304
325 326 311 321 303 306 320 319 317 318 320 319 318 314 311 315 306 310 317 318 318 318 326 324 323 323 323 329 323 317 313 307 306 305 304 304 302 313
321 322 323 301 300 299 308 322 318 319 315 316 315 314 315 316 319 320 323 323 322 321 327 326 320 322 325 324 327 326 324 313 317 309 304 303 302 304
318 321 320 303 300 299 302 306 304 303 314 312 312 311 312 315 318 326 328 330 331 329 331 327 326 325 324 322 320 325 325 324 324 318 316 305 302 299
318 309 304 303 300 302 299 299 297 310 313 312 311 312 314 318 325 324 327 329 329 330 332 329 328 327 325 323 321 321 320 322 324 314 309 307 307 307
308 311 311 308 307 310 308 302 311 315 314 313 313 315 317 318 321 323 325 325 327 326 329 331 329 328 325 325 324 320 322 319 310 307 306 305 304 304
313 317 316 316 315 315 316 316 315 315 314 314 314 314 318 321 321 325 325 325 322 321 321 316 311 308 303 315 321 322 320 311 309 307 304 299 300 302
312 313 314 315 315 315 316 315 316 313 315 316 316 319 319 320 320 323 325 322 320 321 321 317 316 315 312 304 300 314 321 313 312 310 305 297 294 293
311 312 313 314 314 315 314 315 315 316 317 318 318 321 321 320 318 321 322 321 321 321 322 322 320 318 314 308 301 294 310 314 311 309 307 300 294 293
312 311 311 313 314 315 315 315 315 315 315 317 319 322 322 319 319 320 320 320 320 321 322 324 322 321 315 310 301 298 291 310 304 298 294 291 289 291
313 313 314 315 315 314 313 314 314 314 315 318 322 323 321 320 319 321 319 302 307 320 320 319 312 301 309 308 302 298 297 296 302 299 294 294 294 288
311 311 312 312 312 312 312 312 313 313 316 320 322 321 320 321 320 319 319 318 319 321 316 313 314 315 313 305 299 295 290 290 292 294 295 299 305 300
311 312 310 311 311 311 311 313 313 314 318 322 321 321 320 319 321 321 321 321 322 319 318 319 316 310 305 300 295 296 291 292 293 291 289 292 293 294
Wind_Speed
13 12 10 6 4 4 4 4 5 6 6 5 5 6 7 5 6 6 10 12 14 13 11 12 12 14 14 13 13 14 15 14 12 12 11 11 12 13
11 12 12 7 5 4 3 3 4 5 8 3 4 5 6 4 6 6 7 10 10 13 13 13 12 15 13 12 14 15 16 15 13 11 10 11 11 11
17 9 9 6 4 4 2 4 5 5 8 8 4 3 4 4 6 5 5 7 5 10 10 12 13 14 14 12 14 15 15 14 12 10 9 10 10 10
24 15 8 5 7 5 3 5 4 4 6 11 6 5 6 4 7 7 5 4 5 8 11 14 14 12 13 16 15 10 13 13 12 10 8 8 9 10
14 10 8 7 5 3 3 4 5 5 7 8 9 5 4 4 6 7 6 5 4 10 13 16 17 13 11 12 12 13 12 12 9 6 7 9 9 8
8 9 8 7 7 6 5 5 3 4 5 5 7 5 4 5 5 6 5 3 6 5 9 10 5 6 9 11 12 12 11 10 7 6 6 6 8 10
5 7 7 7 8 8 4 3 4 1 2 4 3 3 3 2 4 3 3 3 4 4 5 3 3 3 5 7 6 10 11 10 10 7 6 6 6 7
6 6 7 12 10 10 11 8 5 2 1 1 3 3 4 4 5 4 3 3 4 2 2 3 1 3 3 4 10 11 10 8 7 7 7 6 7 7
7 6 6 6 9 6 6 6 5 7 8 4 5 4 5 4 4 6 5 4 4 5 3 4 1 3 2 1 8 11 10 10 10 8 6 5 7 6
8 7 6 7 8 9 8 6 6 7 8 6 7 8 6 7 5 4 4 6 6 6 5 6 3 3 3 4 5 12 14 11 8 8 7 6 6 6
6 7 7 8 11 12 6 6 4 3 4 10 11 8 10 10 10 3 5 6 8 6 4 4 2 2 3 3 3 7 8 10 8 7 5 5 4 4
7 7 11 9 13 12 7 6 5 6 4 3 2 5 8 10 16 8 6 8 6 7 6 4 3 3 2 3 6 5 5 7 7 7 4 2 0 2
9 7 7 12 12 11 9 6 7 4 1 3 5 6 7 6 5 8 9 8 8 9 5 3 3 5 7 3 4 6 5 4 4 4 4 4 6 5
8 7 8 15 17 16 13 12 11 4 2 4 5 6 7 6 5 1 1 6 8 11 8 3 4 9 4 3 4 4 4 4 5 4 4 6 12 13
6 2 5 15 19 16 13 10 9 4 4 4 6 8 6 5 3 4 6 8 10 10 10 6 4 3 3 4 5 4 4 3 6 8 7 8 5 5
7 3 3 3 7 9 8 6 4 5 6 7 8 8 4 4 3 5 6 6 3 1 3 4 4 1 3 4 7 5 5 4 5 7 8 7 7 8
11 8 6 5 5 5 5 7 8 8 8 9 9 9 4 2 3 6 5 5 3 2 5 7 12 12 11 6 5 7 8 6 7 8 8 8 7 7
8 7 8 9 8 8 6 5 5 8 8 8 8 4 2 2 4 5 4 3 2 2 6 5 6 4 4 9 18 3 8 7 6 7 8 9 7 6
8 8 8 7 5 5 5 5 4 5 5 5 3 3 3 2 3 5 4 2 2 1 5 7 6 4 7 4 1 16 2 8 8 6 5 5 5 5
10 9 7 5 4 4 3 3 4 4 4 4 3 3 3 3 3 5 2 3 3 2 6 7 7 5 6 6 5 2 12 8 6 6 5 4 4 8
9 8 5 3 2 2 3 4 6 5 3 2 3 4 3 3 5 5 3 5 4 4 6 5 3 10 10 9 7 4 6 13 7 6 7 5 3 4
8 6 4 3 2 4 5 7 7 6 5 4 4 4 4 4 6 5 3 5 6 4 9 8 8 9 8 9 9 8 5 5 10 12 9 2 3 4
5 5 6 7 8 8 9 7 7 4 2 5 4 4 4 4 6 4 6 8 5 10 10 8 9 9 8 9 11 8 10 7 5 6 4 11 11 12
Wind_Direction
201 204 205 212 216 222 216 197 169 241 256 226 217 214 232 226 243 263 248 239 245 251 239 231 225 235 230 221 224 231 237 225 218 222 231 241 240 238
229 207 208 204 205 222 241 162 156 187 249 232 210 204 186 213 235 256 256 264 250 245 248 246 240 238 233 222 227 227 224 224 211 210 222 235 242 245
257 216 193 187 216 213 213 179 182 178 228 261 231 256 239 254 277 237 238 257 263 271 269 258 245 248 237 225 227 230 225 214 208 210 220 233 238 245
219 207 181 165 192 208 192 201 185 209 211 241 239 243 250 247 265 265 261 249 254 266 271 268 256 243 233 234 223 216 217 210 196 202 213 236 236 242
202 172 175 169 190 210 219 234 216 229 236 243 259 247 248 246 260 255 234 249 249 260 266 265 262 244 230 222 215 209 209 208 191 187 214 238 251 251
170 162 151 163 175 187 213 231 206 233 250 209 228 241 242 250 235 248 259 233 260 256 265 258 277 236 242 225 211 202 194 207 205 189 204 230 252 261
142 148 132 113 130 155 177 95 95 61 347 328 328 349 318 342 274 263 253 261 270 232 262 279 209 208 219 225 219 200 197 189 190 187 204 227 244 250
117 88 108 113 111 112 112 110 112 119 247 309 303 306 295 321 324 323 328 315 303 263 232 300 349 250 229 188 193 192 202 194 186 180 207 234 238 233
120 122 154 147 130 135 152 166 184 213 220 204 244 247 275 279 294 302 286 282 267 283 299 269 172 268 251 210 226 190 183 175 182 182 194 218 231 230
150 161 183 154 155 170 164 180 207 214 213 213 222 243 244 255 257 265 267 278 273 269 254 252 190 251 298 122 144 156 166 181 169 179 178 201 213 217
166 172 162 165 176 178 161 173 214 242 256 221 224 259 283 282 264 271 275 269 279 280 254 204 161 255 193 124 121 140 145 158 167 161 188 200 214 235
187 188 190 183 164 169 169 177 226 240 236 311 312 282 269 261 252 213 234 250 263 290 220 182 141 67 265 132 141 154 155 164 163 169 183 179 111 297
192 195 199 169 161 173 183 185 206 214 324 298 278 274 271 266 251 219 212 220 240 251 247 157 100 314 241 127 125 151 141 150 149 130 103 76 59 26
211 199 205 184 185 187 190 199 206 184 226 252 266 276 276 272 269 338 265 242 235 245 269 213 291 198 180 120 134 123 140 125 123 108 84 81 78 72
254 124 279 194 195 198 198 180 166 180 223 245 260 263 255 258 342 301 273 256 258 252 248 185 175 221 187 141 136 136 131 112 77 85 68 55 46 27
252 185 216 184 185 177 158 174 198 201 220 240 253 258 269 263 296 286 279 279 250 192 137 87 35 359 103 114 127 136 119 114 91 90 93 75 63 61
217 226 191 173 175 187 185 181 192 207 222 232 245 249 235 279 290 288 266 277 204 148 99 66 68 75 64 28 99 111 111 105 115 117 95 84 57 67
185 204 217 222 204 210 208 204 214 225 236 242 246 215 199 269 276 279 256 242 149 136 118 140 146 114 89 67 36 46 117 118 123 122 113 101 82 60
176 195 197 204 209 204 209 212 231 239 240 242 214 151 154 240 261 278 266 259 7 143 149 172 157 148 134 96 117 40 59 116 111 85 82 81 117 117
178 184 202 222 226 222 227 243 258 258 254 226 180 154 155 206 253 248 199 221 249 224 203 182 174 177 132 140 118 39 16 130 118 106 107 71 65 90
185 190 191 195 203 215 273 260 247 257 241 227 150 145 166 215 245 245 246 262 251 274 189 116 75 100 105 106 95 58 24 37 82 127 136 126 142 172
189 193 191 206 270 269 245 256 248 243 214 176 147 166 186 187 228 212 207 258 256 214 113 124 137 118 110 111 109 104 98 71 63 81 64 62 193 147
231 176 190 192 204 226 251 249 254 246 217 140 146 183 198 217 226 207 259 250 201 115 128 118 104 95 102 114 123 125 129 130 118 97 43 11 24 78